Regional Weather Roundup
Issued by NWS

Home | Current Version | Previous Version | Text Only | Print | Product List | Glossary Off
Versions: 1 2 3 4 5 6 7 8 9 10 11 12 13 14 15 16 17 18 19 20 21 22 23 24 25 26 27 28 29 30 31 32 33 34 35 36 37 38 39 40 41 42 43 44 45 46 47 48 49 50

000
ASUS45 KTFX 270419
RWRMT
MONTANA HOURLY WEATHER ROUNDUP
NATIONAL WEATHER SERVICE GREAT FALLS MT
919 PM MST FRI DEC 26 2014

NOTE: "FAIR" INDICATES FEW OR NO CLOUDS BELOW 12000 FEET WITH NO
SIGNIFICANT WEATHER AND/OR OBSTRUCTIONS TO VISIBILITY.

* THESE STATIONS ARE NOT UNDER NWS QUALITY CONTROL. THEY DO NOT
   REPORT WEATHER SUCH AS PRECIPITATION OR FOG.

MTZ001>007-043-270500-
WEST OF THE DIVIDE
CITY           SKY/WX    TMP DP  RH WIND       PRES   REMARKS
KALISPELL      FAIR      18  18 100 CALM      30.20R
MISSOULA       CLOUDY    27  21  78 N5        30.22S WCI  21
BUTTE          CLOUDY     9   5  84 S5        30.10S
MULLAN PASS    CLOUDY    18  12  77 N3        30.08R
* ESSEX        N/A       22  19  88 N/A        N/A
* HAMILTON APT PTCLDY    21  12  68 SE7       30.21R WCI  12
* LIBBY APT    CLEAR     16  14  92 CALM      30.25R
* LINCOLN      N/A       20  14  77 S5G11      N/A   WCI  13
* LOOKOUT PASS N/A       20  17  88 N2         N/A
* POLSON       N/A       24  23  96 N/A        N/A
* RONAN APT    PTCLDY    27  23  85 N/A        N/A
* SEELEY LAKE  N/A       14  11  88 N3         N/A
* THOMP F APT  PTCLDY    14   6  70 N4         N/A
$$

MTZ008-052>055-270500-
SOUTHWEST MONTANA
CITY           SKY/WX    TMP DP  RH WIND       PRES   REMARKS
BOZEMAN        CLOUDY     9   3  76 SE3       30.15R
DILLON         PTCLDY     7   1  76 S3        30.10R
* W YELLOWSTON PTCLDY    -5 -11  75 N/A        N/A
* THREE FORKS  CLEAR      1   1 100 N/A        N/A
* BOULDER HILL N/A       12   7  80 S7         N/A   WCI   1
* MONIDA PASS  N/A        8   5  87 N/A        N/A
* RAYNOLDS PAS N/A        9   4  80 N/A        N/A
* WHITEHALL    N/A        8   3  80 N5         N/A   WCI  -1
* WISE RIVER   N/A       10   5  80 E2G7       N/A
$$

MTZ009>010-012-014-046-048-049-054-270500-
EAST SLOPES AND CENTRAL MONTANA
CITY           SKY/WX    TMP DP  RH WIND       PRES   REMARKS
CUT BANK       PTCLDY    12   7  80 W6        30.03S WCI   2
GREAT FALLS    CLEAR     16   9  74 S13       30.06F WCI   2
HELENA         FAIR      10   7  88 CALM      30.13F
MALMSTROM AFB  CLEAR      7   3  83 SW12      30.10S WCI  -9
* CONRAD       PTCLDY     3   0  87 CALM       N/A
* EAST GLACIER N/A       19  10  68 W20G31     N/A   WCI   3
* MONARCH      N/A       11   4  73 S11        N/A   WCI  -3
* PENDROY      N/A       11   5  77 W1         N/A
* SWEET GRASS  N/A       13   8  80 SW11       N/A
* WHITE SULPH  N/A        5   1  83 NE5G10     N/A   WCI  -5
$$

MTZ011-013-016-021-035-040-045-047-050-051-270500-
NORTH CENTRAL MONTANA
CITY           SKY/WX    TMP DP  RH WIND       PRES   REMARKS
HAVRE          CLEAR     10   7  88 W5        30.10F WCI   1
LEWISTOWN      CLEAR      7   3  83 SE6       30.07S WCI  -4
* N BAR RANCH  CLEAR      7   1  76 W3        30.06F
* CHINOOK      CLEAR     12   9  88 CALM      30.11F
* CHESTER      N/A       10   7  88 S1         N/A
* DENTON       N/A        1  -2  87 S1         N/A
* JUDITH GAP   N/A        5   3  91 S4         N/A
* LOMA         N/A       13  10  88 E2         N/A
$$

MTZ017>020-022>027-061-062-270500-
NORTHEAST MONTANA
CITY           SKY/WX    TMP DP  RH WIND       PRES   REMARKS
GLASGOW        CLEAR     16  12  84 W5        30.12S WCI   8
GLENDIVE       CLOUDY    25  19  78 W8        30.11S WCI  16
JORDAN         CLEAR     21  18  88 NW7       30.13S WCI  12
SIDNEY         CLOUDY    25  19  78 S7        30.12F WCI  17
WOLF POINT     CLOUDY    19  16  88 W3        30.13S
* BEAVER HILL  N/A       22  16  78 SW9        N/A   WCI  12
* CIRCLE       N/A       26  20  78 SW8        N/A   WCI  18
* LINDSAY DVD  N/A       23  21  92 W11G16     N/A   WCI  12
* NAVAJO       N/A       18  15  88 W8         N/A   WCI   8
* PLENTYWOOD A CLEAR     16  14  92 CALM      30.08S
* POPLAR APT   CLEAR     19  16  88 N/A       30.12F
* SACO         N/A       13  10  88 NW2        N/A
$$

MTZ028>042-056>058-270500-
SOUTHCENTRAL AND SOUTHEAST MONTANA
CITY           SKY/WX    TMP DP  RH WIND       PRES   REMARKS
BAKER          CLOUDY    16  10  77 CALM      30.09F
BILLINGS       CLEAR     18  14  84 SW7       30.12S WCI   9
LIVINGSTON     PTCLDY     9   5  84 NW13      30.10S WCI  -7
MILES CITY     CLOUDY    23  19  85 W8        30.13R WCI  14
* BIG TIMBER A PTCLDY    18  10  71 SW14      30.09S WCI   4
* FORSYTH APT  CLEAR     25  21  85 W8        30.14S WCI  16
* LAUREL APT   CLEAR     16   7  67 N/A        N/A
* ROUNDUP APT  CLEAR      9   1  70 W5         N/A
* ALZADA       N/A        8   6  91 W2         N/A
* REED POINT   N/A        7   5  91 N/A        N/A
* ROSCOE HILL  N/A       14   7  73 SE3        N/A
$$

REGIONAL REPORTS...DAKOTAS
CITY           SKY/WX    TMP DP  RH WIND       PRES   REMARKS
WILLISTON      CLOUDY    21  16  81 CALM      30.10F
DICKINSON      PTCLDY    10   5  80 S6        30.08F
BEACH          CLOUDY    19  18  96 SW7       30.10S WCI  10
CROSBY         CLOUDY    18  18 100 S10       30.08F WCI   6
TIOGA          LGT SNOW  18  18 100 SW6       30.10F WCI  10
WATFORD CITY   CLOUDY    18  16  92 SE6       30.08F WCI  10
BISMARCK       PTCLDY     1   0  95 CALM      30.19F
GRAND FORKS    CLOUDY     7   3  83 N9        30.23F WCI  -6
FARGO          MOCLDY    10   3  73 NW9       30.23F WCI  -3
BUFFALO SD     CLEAR     10   7  88 SW7       30.04S WCI  -1
RAPID CITY     CLOUDY    16  12  84 CALM      30.12S
$$

REGIONAL REPORTS...WYOMING/IDAHO/WASHINGTON
CITY           SKY/WX    TMP DP  RH WIND       PRES   REMARKS
GILLETTE       PTCLDY     7   3  83 W8        30.06S WCI  -6
SHERIDAN       CLOUDY    19  12  74 W14       30.10R WCI   5
CODY           CLOUDY    14  12  92 S3        30.07R
YELLOWSTONE LA MOCLDY     9   3  76 NW6       30.00R WCI  -1
SALMON         CLOUDY    19  16  88 CALM      30.22R
MULLAN PASS    CLOUDY    18  12  77 N3        30.08S
SAND POINT     CLOUDY    28  28 100 SW5       30.28R WCI  22
SPOKANE        PTCLDY    27  25  92 SE5       30.26S WCI  21
$$

REGIONAL REPORTS...ALBERTA
CITY           SKY/WX    TMP DP  RH WIND       PRES   REMARKS
CALGARY        MOCLDY    21  10  62 SW5       29.97S WCI  14
LETHBRIDGE     PTCLDY    14   9  80 SW8       30.03F WCI   3
MEDICINE HAT   MOCLDY    19  16  88 SW15G21   30.04F WCI   5
EDMONTON       CLOUDY    21  16  81 SW6       29.97F WCI  13
WATERTON GATE  N/A       21  12  68 SW24G37    N/A   WCI   4
CARDSTON       N/A       10   7  88 SW5        N/A   WCI   1
MILK RIVER     N/A        7   3  83 CALM       N/A
$$

REGIONAL REPORTS...SASKATCHEWAN
CITY           SKY/WX    TMP DP  RH WIND       PRES   REMARKS
SWIFT CURRENT  LGT SNOW   9   7  91 SW12      30.01F WCI  -6
REGINA         LGT SNOW  12   9  88 SW6       30.07F WCI   2
VAL MARIE      N/A        5   3  91 S7         N/A   WCI  -7
ASSINIBOIA     N/A       12   9  88 W10        N/A   WCI  -1

$$



USA.gov is the U.S. government's official web portal to all federal, state and local government web resources and services.